CW4610 Weather Reports


Display with metric or nautical units.
time (UTC)temp
F
wind
direction
speed
MPH
gust
MPH
rain 1hr
in
rain 24hr
in
rain mn
in
humidity
%
barometer
mb
20180821155025 57 0.0 0.0 0.00 0.00 0.00 76 1018.9
20180821154025 57 0.0 0.0 0.00 0.00 0.00 77 1018.9
20180821153026 56 0.0 0.0 0.00 0.00 0.00 77 1018.9
20180821152027 55 0.0 0.0 0.00 0.00 0.00 78 1018.8
20180821151026 54 0.0 0.0 0.00 0.00 0.00 78 1018.8
20180821150026 54 0.0 0.0 0.00 0.00 0.00 79 1018.8
20180821145026 54 0.0 0.0 0.00 0.00 0.00 79 1018.8
20180821144026 53 0.0 0.0 0.00 0.00 0.00 79 1018.7
20180821143025 53 0.0 0.0 0.00 0.00 0.00 80 1018.7
20180821142026 53 0.0 0.0 0.00 0.00 0.00 79 1018.5
20180821141025 53 0.0 0.0 0.00 0.00 0.00 79 1018.4
20180821140026 53 0.0 0.0 0.00 0.00 0.00 79 1018.4
20180821135025 53 0.0 0.0 0.00 0.00 0.00 79 1018.3
20180821134025 53 0.0 0.0 0.00 0.00 0.00 79 1018.3
20180821133025 53 0.0 0.0 0.00 0.00 0.00 80 1018.3
20180821132025 52 0.0 0.0 0.00 0.00 0.00 80 1018.3
20180821131025 53 0.0 0.0 0.00 0.00 0.00 80 1018.3
20180821130025 53 0.0 0.0 0.00 0.00 0.00 80 1018.3
20180821125025 53 0.0 0.0 0.00 0.00 0.00 79 1018.3
20180821124025 53 0.0 0.0 0.00 0.00 0.00 79 1018.3
20180821123025 53 0.0 0.0 0.00 0.00 0.00 78 1018.3
20180821122025 54 0.0 0.0 0.00 0.00 0.00 77 1018.2
20180821121025 54 0.0 0.0 0.00 0.00 0.00 76 1018.2
20180821120025 54 0.0 0.0 0.00 0.00 0.00 76 1018.2
20180821115024 55 0.0 0.0 0.00 0.00 0.00 75 1018.2
20180821114025 55 0.0 0.0 0.00 0.00 0.00 75 1018.2
20180821113025 55 0.0 0.0 0.00 0.00 0.00 75 1018.2
20180821112025 55 0.0 0.0 0.00 0.00 0.00 75 1018.2
20180821111025 55 0.0 0.0 0.00 0.00 0.00 74 1018.1
20180821110025 56 0.0 0.0 0.00 0.00 0.00 73 1018.1
20180821105025 56 0.0 0.0 0.00 0.00 0.00 73 1018.1
20180821104025 56 0.0 0.0 0.00 0.00 0.00 72 1017.9
20180821103025 56 0.0 0.0 0.00 0.00 0.00 72 1017.9
20180821102025 57 0.0 0.0 0.00 0.00 0.00 70 1017.8
20180821101025 57 0.0 0.0 0.00 0.00 0.00 69 1017.8
20180821100025 57 0.0 0.0 0.00 0.00 0.00 69 1017.8
20180821095025 57 0.0 0.0 0.00 0.00 0.00 69 1017.8
20180821094025 57 0.0 0.0 0.00 0.00 0.00 69 1017.7
20180821093025 57 0.0 0.0 0.00 0.00 0.00 69 1017.7
20180821092025 58 0.0 0.0 0.00 0.00 0.00 69 1017.8
20180821091026 58 0.0 0.0 0.00 0.00 0.00 68 1017.7
20180821090025 58 0.0 0.0 0.00 0.00 0.00 68 1017.7
20180821085025 59 0.0 0.0 0.00 0.00 0.00 66 1017.6
20180821084025 59 0.0 0.0 0.00 0.00 0.00 63 1017.5
20180821083025 59 0.0 0.0 0.00 0.00 0.00 63 1017.5
20180821082026 60 0.0 0.0 0.00 0.00 0.00 62 1017.5
20180821081024 60 0.0 0.0 0.00 0.00 0.00 62 1017.6
20180821080027 60 0.0 0.0 0.00 0.00 0.00 60 1017.6
20180821075026 61 0.0 0.0 0.00 0.00 0.00 61 1017.5
20180821074027 61 0.0 0.0 0.00 0.00 0.00 61 1017.4
20180821073025 61 0.0 0.0 0.00 0.00 0.00 60 1017.4
20180821072027 62 0.0 0.0 0.00 0.00 0.00 59 1017.3
20180821071027 62 0.0 0.0 0.00 0.00 0.00 58 1017.2
20180821070026 62 0.0 0.0 0.00 0.00 0.00 58 1017.2
20180821065025 63 0.0 0.0 0.00 0.00 0.00 57 1017.2
20180821064025 64 0.0 0.0 0.00 0.00 0.00 56 1017.2
20180821063025 64 0.0 0.0 0.00 0.00 0.00 56 1017.2
20180821062026 65 0.0 0.0 0.00 0.00 0.00 54 1016.9
20180821061025 65 0.0 0.0 0.00 0.00 0.00 53 1016.7
20180821060025 65 0.0 0.0 0.00 0.00 0.00 54 1016.7
20180821055027 65 0.0 0.0 0.00 0.00 0.00 53 1016.7
20180821054025 66 0.0 0.0 0.00 0.00 0.00 53 1016.6
20180821053025 67 0.0 0.0 0.00 0.00 0.00 51 1016.6
20180821052026 68 0.0 0.0 0.00 0.00 0.00 50 1016.6
20180821051026 68 0.0 0.0 0.00 0.00 0.00 49 1016.3
20180821050025 69 0.0 0.0 0.00 0.00 0.00 48 1016.3
20180821045018 70 0.0 0.0 0.00 0.00 0.00 46 1016.2
20180821044025 71 0.0 0.0 0.00 0.00 0.00 45 1016.1
20180821043018 71 0.0 0.0 0.00 0.00 0.00 46 1016.2
20180821042026 72 0.0 0.0 0.00 0.00 0.00 45 1016.1
20180821041025 72 0.0 0.0 0.00 0.00 0.00 45 1015.9
20180821040025 73 0.0 1.0 0.00 0.00 0.00 46 1015.9
20180821035025 74 0.0 0.0 0.00 0.00 0.00 55 1015.7
20180821034025 76 0.0 0.0 0.00 0.00 0.00 54 1015.4
20180821033025 78 0.0 0.0 0.00 0.00 0.00 45 1015.5
20180821032025 79 0.0 0.0 0.00 0.00 0.00 37 1015.2
20180821031026 80 0.0 0.0 0.00 0.00 0.00 36 1015.2
20180821030027 82 87 0.0 4.0 0.00 0.00 0.00 34 1015.2
20180821025024 83 67 0.0 4.0 0.00 0.00 0.00 33 1015.2
20180821024025 83 40 0.0 6.0 0.00 0.00 0.00 32 1015.2
20180821023025 84 5 1.0 6.0 0.00 0.00 0.00 31 1015.2
20180821022025 84 23 1.0 5.0 0.00 0.00 0.00 31 1015.2
20180821021025 85 3 2.0 6.0 0.00 0.00 0.00 29 1015.2
20180821020025 85 8 3.0 6.0 0.00 0.00 0.00 28 1015.2
20180821015025 86 21 2.0 8.0 0.00 0.00 0.00 27 1015.2
20180821014018 87 24 1.0 5.0 0.00 0.00 0.00 24 1015.2
20180821013025 87 34 3.0 6.0 0.00 0.00 0.00 21 1015.2
20180821012025 87 38 1.0 8.0 0.00 0.00 0.00 20 1015.2
20180821011025 87 20 2.0 9.0 0.00 0.00 0.00 21 1015.1
20180821010025 88 13 5.0 11.0 0.00 0.00 0.00 22 1015.1
20180821005025 88 11 6.0 12.0 0.00 0.00 0.00 22 1015.2
20180821004025 88 355 4.0 10.0 0.00 0.00 0.00 21 1015.2
20180821003025 88 354 5.0 10.0 0.00 0.00 0.00 21 1015.2
20180821002025 88 336 5.0 12.0 0.00 0.00 0.00 20 1015.2
20180821001025 88 11 3.0 10.0 0.00 0.00 0.00 20 1015.2
20180821000025 88 13 5.0 10.0 0.00 0.00 0.00 20 1015.2
20180820235025 88 7 5.0 11.0 0.00 0.00 0.00 20 1015.3
20180820234025 88 7 5.0 10.0 0.00 0.00 0.00 20 1015.4
20180820233024 88 9 5.0 10.0 0.00 0.00 0.00 20 1015.4
20180820232017 88 16 4.0 10.0 0.00 0.00 0.00 21 1015.6
20180820231024 88 355 5.0 13.0 0.00 0.00 0.00 21 1015.7
20180820230024 88 355 5.0 13.0 0.00 0.00 0.00 21 1015.7
20180820225026 88 348 5.0 13.0 0.00 0.00 0.00 21 1015.7
20180820224027 88 14 4.0 13.0 0.00 0.00 0.00 21 1015.8
20180820223024 88 10 6.0 11.0 0.00 0.00 0.00 22 1015.8
20180820222027 88 16 6.0 11.0 0.00 0.00 0.00 21 1015.8
20180820221026 88 5 6.0 13.0 0.00 0.00 0.00 23 1016.0
20180820220026 87 20 5.0 15.0 0.00 0.00 0.00 23 1016.0
20180820215027 85 12 5.0 14.0 0.00 0.00 0.00 25 1016.2
20180820214027 83 258 0.0 5.0 0.00 0.00 0.00 45 1016.3
20180820213027 82 222 0.0 4.0 0.00 0.00 0.00 48 1016.3
20180820212026 81 216 2.0 6.0 0.00 0.00 0.00 50 1016.6
20180820211026 81 216 1.0 4.0 0.00 0.00 0.00 52 1016.7
20180820210026 81 223 0.0 3.0 0.00 0.00 0.00 53 1016.7
20180820205029 81 218 1.0 6.0 0.00 0.00 0.00 52 1016.8
20180820204026 81 308 2.0 6.0 0.00 0.00 0.00 52 1016.8
20180820203026 79 303 0.0 3.0 0.00 0.00 0.00 56 1016.8
20180820202026 78 200 0.0 1.0 0.00 0.00 0.00 58 1017.0
20180820201026 78 192 0.0 5.0 0.00 0.00 0.00 61 1017.2
20180820200026 77 207 0.0 3.0 0.00 0.00 0.00 60 1017.2
20180820195026 77 313 0.0 2.0 0.00 0.00 0.00 59 1017.3
20180820194018 76 315 0.0 5.0 0.00 0.00 0.00 60 1017.4
20180820193026 75 318 0.0 4.0 0.00 0.00 0.00 62 1017.4
20180820192026 74 331 0.0 3.0 0.00 0.00 0.00 65 1017.8
20180820191026 73 333 0.0 4.0 0.00 0.00 0.00 68 1017.9
20180820190026 72 331 0.0 2.0 0.00 0.00 0.00 70 1017.9
20180820185026 71 329 0.0 3.0 0.00 0.00 0.00 71 1018.2
20180820184027 71 329 0.0 1.0 0.00 0.00 0.00 71 1018.3
20180820183026 70 0.0 0.0 0.00 0.00 0.00 71 1018.3
20180820182026 69 308 0.0 1.0 0.00 0.00 0.00 74 1018.4
20180820181026 68 0.0 0.0 0.00 0.00 0.00 75 1018.4
20180820180026 68 308 0.0 1.0 0.00 0.00 0.00 75 1018.4
20180820175026 68 0.0 0.0 0.00 0.00 0.00 75 1018.5
20180820174026 67 0.0 0.0 0.00 0.00 0.00 77 1018.6
20180820173026 67 0.0 0.0 0.00 0.00 0.00 78 1018.6
20180820172027 66 0.0 0.0 0.00 0.00 0.00 81 1018.5
20180820171026 65 0.0 0.0 0.00 0.00 0.00 83 1018.4
20180820170026 64 0.0 0.0 0.00 0.00 0.00 82 1018.4
20180820165026 63 188 0.0 1.0 0.00 0.00 0.00 83 1018.4
20180820164026 62 0.0 0.0 0.00 0.00 0.00 85 1018.5
20180820163026 62 0.0 0.0 0.00 0.00 0.00 86 1018.5
20180820162026 61 0.0 0.0 0.00 0.00 0.00 87 1018.5
20180820161025 60 0.0 0.0 0.00 0.00 0.00 87 1018.5
20180820160026 60 0.0 0.0 0.00 0.00 0.00 88 1018.5